Regional Weather Roundup
Issued by NWS Charleston, SC

Current Version | Previous Version | Graphics & Text | Print | Product List | Glossary On
Versions: 1 2 3 4 5 6 7 8 9 10 11 12 13 14 15 16 17 18 19 20 21 22 23 24 25 26 27 28 29 30 31 32 33 34 35 36 37 38 39 40 41 42 43 44 45 46 47 48 49 50
000
ASUS42 KCHS 071412
RWRCHS

REGIONAL WEATHER ROUNDUP
NATIONAL WEATHER SERVICE CHARLESTON SC
900 AM EST SUN FEB 07 2016

NOTE: "FAIR" INDICATES FEW OR NO CLOUDS BELOW 12,000 FEET WITH NO
SIGNIFICANT WEATHER AND/OR OBSTRUCTIONS TO VISIBILITY.

NOT ALL STATIONS ARE QUALITY CONTROLLED BY THE NATIONAL
WEATHER SERVICE. USE DATA WITH CAUTION...ESPECIALLY
DEWPOINT OBSERVATIONS.

NOTICE: OBSERVATIONS FOR THE SAVANNAH-HILTON HEAD INTERNATIONAL AIRPORT
/KSAV/ HAVE BEEN TEMPORARILY REMOVED DUE TO AN ERRONEOUS TEMPERATURE
SENSOR. THE OBSERVATION WILL BE REINTRODUCED ONCE REPAIRS ARE COMPLETE.

SCZ027-030-031-034>040-042>050-071500-
...SOUTHEAST SOUTH CAROLINA...

CITY           SKY/WX    TMP DP  RH WIND       PRES   REMARKS
N CHARLESTON   LGT RAIN  41  38  89 N12       29.95R
WATERFRONT PRK   N/A     41  40  96 N14       29.79R
MOUNT PLEASANT CLOUDY    39  37  93 N7        29.95R WCI  34
JOHNS ISLAND   LGT RAIN  41  39  93 N10G16    29.95R
PINOPOLIS        N/A    N/A N/A N/A N18       29.87F
MONCKS CORNER  LGT RAIN  37  34  87 N12G17    29.97R WCI  30
SUMMERVILLE    CLOUDY    37  37 100 NW9       30.00R WCI  31
BEAUFORT MCAS  CLOUDY    40  36  86 NW17G24   30.01R WCI  31
BEAUFORT ARPT  CLOUDY    39  37  93 NW17      29.99R FOG     WCI  30
HILTON HEAD IS CLOUDY    41  37  87 N14G21    30.00R
WALTERBORO     NOT AVBL
ALLENDALE      CLOUDY    41  32  70 CALM      30.04R

...SOUTHERN MIDLANDS AND PEE DEE...

CITY           SKY/WX    TMP DP  RH WIND       PRES   REMARKS
GEORGETOWN     NOT AVBL
KINGSTREE      NOT AVBL
ORANGEBURG     CLOUDY    41  28  60 N10       30.02S
BARNWELL       CLOUDY    45  30  57 N9        30.05R
AIKEN          FAIR      37  23  56 N9        30.08S WCI  31
MANNING        FAIR      37  32  81 N13G25    29.98S WCI  29
COLUMBIA       CLOUDY    43  22  43 NW7       30.05R
SUMTER         CLOUDY    41  26  56 N12       30.00S
FLORENCE       LGT RAIN  37  33  85 N17G29    29.98F WCI  27
MYRTLE BEACH   RAIN      37  30  75 N17G25    29.94F FOG     WCI  28
N MYRTLE BEACH LGT RAIN  37  35  92 N13       29.91F WCI  29

$$

GAZ063-065-086>088-099>101-113>116-118-119-134>141-150-071500-
...SOUTHEAST GEORGIA...

CITY           SKY/WX    TMP DP  RH WIND       PRES   REMARKS
SAVANNAH ARPT  CLOUDY    40  35  83 N14       30.02S WCI  32
HUNTER AAF     CLOUDY    40  37  92 N15       29.99R WCI  31
FORT STEWART   CLOUDY    40  35  80 N10       30.02R WCI  34
STATESBORO     CLOUDY    46  31  56 N9        30.05S
SYLVANIA       CLOUDY    43  36  77 N6        30.05S
CLAXTON        FAIR      42  38  84 W7        30.06R

...CSRA...CENTRAL AND FAR SOUTHEAST GEORGIA...

CITY           SKY/WX    TMP DP  RH WIND       PRES   REMARKS
THOMSON        MOSUNNY   38  29  71 NW5       30.15R WCI  34
AUGUSTA-BUSH   CLOUDY    42  24  49 N13       30.08R
AUGUSTA-DANIEL PTSUNNY   41  21  44 NW10      30.08R
SWAINSBORO     FAIR      41  28  60 NW8       30.09R
VIDALIA        CLOUDY    41  30  65 NW8       30.08R
EASTMAN        FAIR      40  29  66 N5        30.15R WCI  36
HAZLEHURST     FAIR      41  32  71 NW3       30.09R
ALMA           MOSUNNY   41  32  70 NW8       30.07S
WAYCROSS       CLOUDY    44  39  82 NW8       30.07R
JESUP          CLOUDY    45  39  81 N12       30.05R
BAXLEY         FAIR      43  32  65 N12       30.06F
BRUNSWICK      CLOUDY    39  37  93 NW10G17   30.02F WCI  32
SAINT SIMONS   CLOUDY    40  38  93 NW14G23   30.00S WCI  32

$$

SCZ027-028-034-036>038-045-046-048>050-GAZ119-141-071500-
...LAKE AND SUPPLEMENTAL COASTAL OBSERVATIONS...

STATION/POSITION TIME  TEMP    WIND        PRES    WAVE   SWELL
                       AIR SEA DIR/SP/G            HT/PER HT/PER/DIR
                 (UTC) (F)     (DEG/KT/KT) (MB)    (FT/S) (FT/S/D)
WINYAH BAY       NOT AVBL
LAKE MURRAY      1300   41     340/  3/  9 1017.3F
ACE BASIN NERRS  NOT AVBL
FORT PULASKI     1300   40 54  320/ 15/ 18 1015.7F
SAPELO ISLAND    1300   41     340/ 13     1016.0S

$$

ANZ835-935-AMZ111-154-330-350-352-354-370-450-454-472-071500-
...C-MAN AND BUOY OBSERVATIONS...

STATION/POSITION TIME  TEMP    WIND        PRES    WAVE   SWELL
                       AIR SEA DIR/SP/G            HT/PER HT/PER/DIR
                 (UTC) (F)     (DEG/KT/KT) (MB)    (FT/S) (FT/S/D)
BUOY 41004       1350   50 66  360/ 31/ 39 1009.3F  13/ 9   8/ 9
BUOY 41008       1350   44 56  350/ 21/ 25 1014.7R   6/ 6   3/ 60/ 8
FOLLY BEACH CMAN 1400   41     360/ 12/ 14 1014.0R
CAPERS NEARSHORE 1308   42      20/ 19/ 27 1011.2F
FRIPP NEARSHORE  1300   43     350/ 21/ 27 1014.0R


STATION/POSITION TIME  TEMP    WIND        PRES    WAVE   SWELL
                       AIR SEA DIR/SP/G            HT/PER HT/PER/DIR
                 (UTC) (F)     (DEG/KT/KT) (MB)    (FT/S) (FT/S/D)
5E ST. MARYS GA  1321      56                N/A     6/ 8   2/100/12
FRYING PAN BUOY  1300   51 68   10/ 33/ 41 1009.9F
BUOY 41025       1350   55 70   30/ 33/ 41 1011.2F  10/ 7   2/ 90/11
CAPE LOOKOUT NC  NOT AVBL
BUOY 41002       1350   64 69  130/ 29/ 35   N/A     9/ 7   3/100/11
BUOY 41010       1320   67 74              1007.2F
ST AUGUSTINE FL  1400   43 57  300/ 10/ 14 1017.1R


$$



USA.gov is the U.S. government's official web portal to all federal, state and local government web resources and services.